Probability
3 0 0 3 3 3 3 3 3 6 6 3 6 3 3 0 0 0 0 0 0 0 0 0 0 0 0 0 0 0 0 0 0 0 0 0 0 0 0 0 0 0 0
3 3 0 0 3 3 3 6 3 3 6 6 6 6 3 6 0 3 0 0 0 0 0 0 0 0 0 0 0 0 0 0 0 0 0 0 0 0 0 0 0 0 0
0 3 3 0 3 3 3 3 3 3 3 6 6 3 3 3 3 3 0 0 0 0 0 0 0 0 0 0 0 0 0 0 0 0 0 0 0 0 0 0 0 0 0
0 3 6 3 0 3 3 3 3 3 3 3 6 3 3 3 3 3 6 3 3 3 3 3 3 0 0 0 0 0 0 0 0 0 0 0 0 0 0 0 0 0 0
0 3 6 10 3 3 6 3 6 3 3 3 3 10 6 6 6 6 6 6 3 3 3 3 3 3 3 0 0 0 0 0 0 0 0 0 0 0 0 0 0 0 0
0 0 3 10 6 3 3 3 3 3 3 3 6 3 3 6 6 6 6 3 3 0 0 0 0 0 3 3 3 0 0 0 0 0 0 0 0 0 0 0 0 0 0
0 3 3 13 6 6 6 3 6 6 3 3 3 3 6 3 3 0 0 3 3 0 0 0 0 0 0 0 3 3 3 0 0 0 0 0 0 0 0 0 0 0 0
0 0 3 13 10 10 6 3 6 3 6 3 3 3 3 3 3 3 0 0 0 0 0 0 0 0 0 0 0 0 0 0 0 0 0 0 0 0 0 0 0 0 0
0 3 6 13 13 10 6 6 3 3 10 6 6 3 3 0 0 0 0 0 0 0 0 0 0 3 0 0 0 0 0 0 0 0 0 0 0 0 0 0 0 0 0
0 0 10 6 10 6 6 3 3 3 10 6 6 6 3 0 0 0 0 0 0 0 0 0 0 3 3 3 0 0 0 0 0 0 0 0 0 0 0 0 0 0 0
0 3 6 10 6 10 6 6 3 3 6 6 3 6 6 0 0 0 0 0 0 0 0 0 0 0 0 3 3 3 0 0 0 0 0 0 0 0 0 0 0 0 0
3 3 3 3 6 6 10 10 3 3 6 6 6 3 3 0 0 0 0 0 0 0 0 0 0 0 0 0 3 3 0 0 0 0 0 0 0 0 0 0 0 0 0
0 0 0 3 3 3 6 10 10 3 3 6 6 3 3 3 0 0 0 0 0 0 0 0 0 0 0 0 0 3 0 0 0 0 0 0 0 0 0 0 0 0 0
0 0 3 0 3 3 3 3 6 3 3 3 6 6 3 3 3 3 0 0 0 0 0 0 0 0 0 0 0 0 0 0 0 0 0 0 0 0 0 0 0 0 0
0 3 3 0 0 0 3 3 3 3 0 3 6 6 6 3 3 3 3 3 0 0 0 0 0 0 0 0 0 0 0 3 0 0 0 0 0 0 0 0 0 0 0
0 0 3 0 0 0 0 0 0 0 0 0 0 3 6 3 3 3 3 3 3 0 0 0 0 0 0 0 0 0 0 0 0 0 0 0 0 0 0 0 0 0 0
0 0 0 0 0 0 0 0 0 0 0 0 0 0 3 3 3 6 6 6 6 6 0 0 0 0 0 0 0 0 0 0 0 0 0 0 0 0 0 0 0 0 0
0 0 0 0 0 0 0 0 0 0 0 0 0 0 0 3 3 3 6 6 6 6 3 0 0 0 0 0 0 0 0 0 0 0 0 0 0 0 0 0 0 0 0
0 0 0 0 0 0 0 0 0 0 0 0 0 0 0 0 3 3 3 3 6 6 3 3 0 0 0 0 0 0 0 0 0 0 0 0 0 0 0 0 0 0 0
0 0 0 0 0 0 0 0 0 0 0 0 0 0 0 0 0 3 3 3 3 3 3 3 0 0 0 0 0 0 0 0 0 0 0 0 0 0 0 0 0 0 0
0 0 0 0 0 0 0 0 0 0 0 0 0 0 0 0 0 0 3 3 3 3 3 3 0 0 0 0 0 0 0 0 0 0 0 0 0 0 0 0 0 0 0
0 0 0 0 0 0 0 0 0 0 0 0 0 0 0 0 0 0 0 3 3 3 3 0 0 0 0 0 0 0 0 0 0 0 0 0 0 0 0 0 0 0 0
0 0 0 0 0 0 0 0 0 0 0 0 0 0 0 0 0 0 0 3 3 3 0 0 0 0 0 0 0 0 0 0 0 0 0 0 0 0 0 0 0 0 0
0 0 0 0 0 0 0 0 0 0 0 0 0 0 0 0 0 0 0 3 3 0 0 0 0 0 0 0 0 0 0 0 0 0 0 0 0 0 0 0 0 0 0
0 0 0 0 0 0 0 0 0 0 0 0 0 0 0 0 0 0 3 3 0 0 0 0 0 0 0 0 0 0 0 0 0 0 0 0 0 0 0 0 0 0 0
0 0 0 0 0 0 0 0 0 0 0 0 0 0 0 0 3 0 0 0 0 0 0 0 0 0 0 0 0 0 0 0 0 0 0 0 0 0 0 0 0 0 0
Height
5858 5858 5858 5858 5858 5858 5858 5858 5858 5858 5858 5858 5858 5858 5858 5858 5858 5858 5857 5857 5857 5857 5857 5858 5858 5858 5858 5857 5857 5857 5857 5857 5856 5856 5856 5855 5855 5855 5854 5854 5854 5853 5853
5857 5857 5856 5857 5857 5856 5856 5856 5856 5856 5856 5856 5856 5856 5856 5856 5856 5856 5855 5855 5855 5855 5855 5855 5855 5855 5855 5855 5855 5855 5855 5854 5854 5854 5854 5854 5854 5853 5852 5852 5851 5851 5850
5855 5855 5855 5855 5855 5855 5855 5855 5855 5855 5854 5854 5854 5854 5854 5854 5854 5854 5854 5853 5853 5853 5853 5853 5853 5853 5853 5853 5852 5852 5852 5852 5852 5851 5851 5851 5851 5850 5850 5849 5849 5848 5848
5854 5854 5854 5854 5853 5853 5853 5853 5853 5853 5853 5852 5852 5852 5852 5852 5852 5852 5852 5852 5851 5851 5851 5851 5851 5851 5850 5850 5850 5850 5850 5849 5849 5849 5848 5848 5848 5848 5847 5847 5846 5845 5845
5852 5852 5852 5852 5852 5851 5851 5851 5851 5851 5851 5850 5850 5850 5850 5850 5850 5849 5849 5849 5849 5849 5849 5848 5848 5848 5848 5848 5848 5847 5847 5847 5847 5846 5845 5845 5844 5844 5844 5843 5843 5842 5842
5850 5850 5850 5850 5850 5849 5849 5849 5849 5848 5848 5848 5848 5848 5848 5847 5847 5847 5847 5847 5847 5846 5846 5846 5845 5845 5845 5845 5845 5845 5844 5844 5844 5843 5842 5842 5841 5840 5840 5840 5839 5839 5839
5848 5848 5848 5848 5848 5847 5847 5846 5846 5846 5846 5846 5846 5845 5845 5845 5845 5845 5844 5844 5844 5844 5843 5843 5843 5843 5842 5842 5842 5842 5841 5841 5840 5840 5839 5838 5838 5837 5837 5836 5835 5835 5835
5846 5846 5845 5845 5845 5845 5844 5844 5844 5844 5843 5843 5843 5843 5843 5842 5842 5842 5842 5841 5841 5840 5840 5840 5840 5840 5839 5839 5839 5838 5838 5837 5837 5836 5835 5835 5834 5833 5833 5832 5832 5831 5830
5844 5843 5843 5843 5842 5842 5842 5841 5841 5841 5841 5841 5840 5840 5840 5840 5839 5839 5839 5838 5838 5837 5836 5836 5837 5837 5836 5836 5835 5835 5834 5834 5833 5832 5832 5831 5830 5829 5828 5828 5827 5827 5826
5841 5841 5840 5840 5839 5839 5839 5839 5838 5838 5838 5838 5837 5837 5837 5836 5836 5836 5836 5835 5835 5834 5834 5833 5833 5833 5833 5832 5832 5831 5830 5830 5829 5828 5827 5827 5826 5825 5824 5823 5822 5822 5821
5838 5838 5837 5837 5836 5836 5836 5836 5835 5835 5835 5835 5834 5834 5834 5833 5833 5832 5832 5832 5831 5831 5831 5830 5830 5830 5829 5828 5828 5827 5826 5826 5825 5824 5823 5822 5821 5821 5820 5819 5818 5817 5816
5834 5834 5834 5834 5833 5833 5833 5833 5832 5832 5831 5831 5831 5830 5830 5829 5829 5828 5828 5828 5828 5827 5827 5827 5826 5826 5825 5824 5823 5823 5822 5821 5820 5819 5818 5817 5817 5816 5815 5814 5813 5812 5811
5832 5831 5831 5830 5830 5830 5829 5829 5829 5828 5828 5828 5827 5827 5826 5825 5825 5825 5824 5824 5824 5824 5823 5823 5822 5821 5821 5820 5819 5818 5817 5816 5815 5814 5814 5813 5812 5811 5810 5809 5808 5807 5806
5828 5828 5827 5827 5827 5827 5826 5826 5825 5825 5825 5824 5824 5823 5822 5821 5821 5821 5821 5820 5820 5820 5819 5818 5817 5817 5816 5815 5814 5813 5812 5811 5810 5809 5808 5808 5807 5806 5805 5803 5802 5801 5800
5825 5824 5824 5824 5823 5823 5822 5822 5821 5821 5820 5820 5819 5819 5818 5817 5817 5816 5816 5816 5815 5815 5814 5813 5812 5812 5811 5810 5809 5808 5807 5806 5805 5804 5803 5802 5801 5800 5799 5798 5796 5795 5794
5821 5821 5820 5820 5819 5819 5818 5818 5817 5816 5816 5816 5815 5814 5813 5813 5812 5812 5811 5810 5810 5809 5809 5808 5807 5806 5806 5805 5804 5803 5801 5800 5799 5798 5797 5796 5795 5793 5792 5791 5790 5789 5787
5818 5817 5816 5816 5815 5814 5814 5813 5812 5812 5811 5810 5810 5809 5808 5807 5807 5806 5806 5805 5804 5804 5803 5802 5802 5801 5800 5799 5798 5797 5795 5794 5793 5792 5791 5790 5788 5787 5786 5784 5783 5781 5780
5813 5812 5812 5811 5811 5810 5809 5808 5807 5806 5806 5805 5804 5804 5803 5802 5801 5800 5799 5799 5798 5797 5797 5796 5795 5795 5794 5793 5791 5790 5789 5788 5787 5785 5784 5783 5782 5781 5779 5777 5776 5774 5772
5807 5807 5806 5806 5805 5804 5803 5802 5801 5800 5800 5799 5798 5798 5796 5795 5794 5793 5792 5791 5791 5790 5790 5789 5788 5788 5787 5786 5784 5783 5782 5781 5780 5779 5777 5776 5775 5774 5772 5770 5769 5767 5765
5801 5801 5800 5800 5799 5798 5797 5796 5795 5794 5794 5793 5792 5791 5790 5789 5788 5787 5785 5784 5783 5782 5782 5782 5781 5780 5779 5778 5777 5776 5775 5774 5773 5772 5770 5769 5768 5766 5764 5763 5761 5759 5757
5794 5794 5793 5793 5792 5791 5791 5790 5789 5788 5787 5786 5785 5784 5784 5782 5781 5779 5778 5777 5776 5775 5774 5774 5773 5772 5771 5770 5769 5768 5767 5766 5765 5764 5763 5761 5760 5758 5756 5755 5753 5751 5749
5787 5786 5786 5785 5785 5784 5783 5782 5781 5780 5779 5779 5778 5777 5776 5775 5774 5772 5771 5770 5769 5768 5766 5765 5765 5764 5763 5762 5760 5759 5758 5757 5757 5756 5755 5753 5752 5750 5748 5746 5744 5742 5740
5779 5778 5778 5777 5776 5775 5775 5774 5773 5772 5772 5771 5770 5770 5769 5768 5766 5765 5763 5762 5761 5760 5759 5758 5757 5756 5755 5753 5752 5751 5750 5749 5748 5747 5746 5744 5743 5741 5740 5738 5736 5733 5731
5771 5770 5769 5769 5768 5767 5766 5766 5765 5764 5763 5763 5762 5762 5761 5760 5758 5757 5756 5755 5754 5753 5752 5750 5749 5748 5746 5745 5744 5742 5741 5740 5739 5738 5737 5736 5734 5732 5731 5729 5727 5724 5722
5762 5761 5761 5760 5759 5759 5758 5757 5756 5755 5755 5754 5754 5753 5753 5752 5751 5749 5748 5747 5746 5745 5744 5743 5741 5740 5738 5737 5735 5734 5733 5732 5731 5730 5729 5727 5725 5724 5722 5720 5718 5715 5713
5753 5753 5752 5752 5751 5750 5750 5749 5748 5747 5746 5746 5745 5744 5744 5743 5742 5741 5740 5739 5738 5737 5735 5734 5732 5731 5730 5728 5727 5725 5724 5723 5722 5721 5720 5718 5717 5715 5713 5710 5708 5706 5703
Wind_Speed
7 8 8 9 9 10 9 9 9 8 8 8 8 8 8 8 9 9 9 9 10 10 10 10 10 10 10 10 10 9 9 10 9 9 9 9 10 10 10 11 11 11 12
8 8 8 8 9 9 9 9 9 8 9 9 8 8 8 9 9 9 9 9 9 10 11 10 10 10 10 10 10 10 10 10 10 10 11 11 10 10 11 11 12 12 12
8 8 9 9 9 9 9 9 9 9 8 8 8 8 9 9 9 9 8 8 9 9 10 10 10 10 10 11 11 11 11 11 11 11 12 12 11 12 12 12 12 12 12
8 8 8 9 9 10 10 10 10 9 9 10 10 10 9 10 9 9 9 9 9 9 10 10 11 11 11 11 11 11 12 12 12 12 12 13 13 13 13 13 13 13 12
9 9 9 9 10 10 11 10 10 10 10 11 11 10 11 11 10 10 9 10 10 10 10 11 11 11 11 11 11 12 12 12 13 13 13 14 14 15 14 14 14 14 13
10 10 10 9 10 10 11 11 11 11 11 11 11 11 11 11 11 10 10 11 11 10 11 11 11 10 10 11 11 12 12 13 13 14 14 14 15 15 15 15 14 14 14
10 10 11 10 11 11 11 12 11 11 11 11 11 11 11 11 11 11 11 11 11 11 11 11 11 11 11 12 12 13 14 14 14 14 14 14 14 15 15 15 15 15 15
12 12 12 12 12 12 11 11 11 11 11 11 11 11 11 11 11 11 11 11 12 12 12 12 12 12 13 13 13 14 14 15 15 15 15 15 15 15 15 16 16 16 16
12 12 12 12 12 12 11 11 11 11 12 12 11 12 12 12 12 12 12 12 12 13 13 13 13 13 13 14 14 15 15 15 15 15 15 15 16 16 16 16 16 16 16
13 13 13 12 12 12 12 11 11 12 12 12 13 13 13 13 14 14 14 13 14 14 13 13 14 14 15 15 15 16 16 16 16 16 16 16 16 16 16 16 16 16 16
13 12 12 13 13 12 12 12 12 13 13 13 13 14 14 14 14 15 14 14 14 14 14 14 14 15 15 15 16 16 16 16 16 17 17 17 17 17 17 17 17 17 17
14 13 12 12 12 12 12 13 13 13 13 14 14 14 14 14 14 15 15 15 15 15 15 15 16 16 17 17 17 17 17 17 17 17 18 17 17 17 17 18 18 18 18
13 14 13 13 13 13 13 13 13 14 14 14 14 15 15 15 15 15 16 16 16 16 17 17 18 17 17 18 17 17 17 17 17 17 17 17 18 18 19 19 19 19 19
14 14 14 13 14 14 14 14 15 15 15 15 15 15 16 16 16 16 17 17 17 18 18 19 19 18 18 18 18 18 19 19 19 18 18 18 18 19 19 19 20 20 20
15 15 14 14 15 15 15 16 16 16 16 16 16 16 16 16 16 17 18 18 19 19 19 19 19 19 18 19 19 20 20 20 20 19 19 19 20 20 20 20 21 21 21
16 16 16 16 16 16 16 16 17 17 17 17 17 17 17 17 17 18 19 19 20 20 20 20 19 19 19 20 20 20 20 20 20 20 20 20 21 21 22 22 22 22 23
17 17 17 18 18 17 17 18 18 18 18 18 19 19 19 19 19 19 20 20 20 21 21 21 20 20 20 20 21 21 21 21 22 22 22 22 22 22 23 23 24 24 24
18 18 19 19 19 19 19 19 20 20 20 20 20 20 20 20 20 21 21 21 22 22 22 22 22 22 22 22 22 22 22 22 23 23 23 23 23 23 24 24 24 25 25
20 20 20 20 20 21 21 21 21 21 21 21 21 21 21 21 21 22 22 23 24 23 23 23 23 24 24 24 24 24 24 24 24 24 24 24 24 25 25 25 25 25 25
23 22 22 22 22 23 23 23 22 22 22 22 22 22 22 23 23 23 23 24 23 24 24 24 24 24 24 25 25 25 25 25 24 25 25 25 25 26 26 26 25 26 27
24 24 24 24 24 24 24 24 24 24 23 23 23 23 23 23 24 24 25 24 24 24 24 24 25 25 26 26 26 26 26 26 26 25 25 25 26 27 27 27 27 28 28
25 26 26 26 26 26 26 26 26 25 25 25 24 25 24 24 25 25 25 25 25 25 25 25 26 26 27 27 27 27 27 27 27 26 26 26 27 27 28 28 28 29 29
26 27 27 27 27 27 27 27 27 27 26 26 25 25 26 26 26 26 25 25 25 26 26 26 26 27 27 27 27 27 28 28 27 27 27 27 28 28 28 28 29 29 29
27 27 27 27 27 28 27 27 27 27 27 27 27 26 27 27 27 27 26 26 26 26 26 27 27 27 27 26 26 27 27 27 27 27 28 28 28 29 29 29 29 29 29
28 28 28 28 27 27 27 27 27 28 28 28 28 28 28 28 27 27 27 27 27 27 27 27 27 28 27 27 27 27 27 27 28 28 28 28 28 29 29 29 29 29 30
29 29 28 28 28 28 27 27 28 29 29 28 28 28 28 28 28 28 28 28 29 29 29 29 28 28 28 28 28 27 27 27 28 28 28 28 28 29 30 30 30 30 31
Wind_Direction
288 292 291 286 284 285 287 289 291 294 296 297 294 289 289 289 286 283 283 286 286 283 280 279 281 282 280 278 279 279 282 286 289 290 294 296 294 290 289 289 288 285 281
288 290 292 293 293 292 290 290 293 296 293 293 293 290 290 291 291 290 286 285 283 281 280 280 278 277 273 273 276 278 282 288 289 289 291 292 292 291 292 293 293 291 288
287 290 292 294 294 295 295 294 292 295 297 299 296 293 296 294 292 288 287 286 287 284 282 279 278 276 272 273 277 278 282 287 288 289 290 290 290 288 290 294 294 292 290
289 291 294 295 294 293 294 295 294 296 297 298 294 292 292 293 293 290 286 285 286 283 282 280 278 277 276 276 277 278 283 285 287 289 288 289 289 289 290 291 293 293 289
287 288 292 294 295 295 293 294 295 294 295 295 293 286 286 289 290 288 285 285 285 284 283 282 280 281 279 279 280 282 284 286 287 290 288 289 290 288 289 289 290 291 288
287 287 289 292 294 296 296 295 295 293 293 294 291 287 286 285 285 285 284 286 285 284 284 284 282 282 281 282 282 284 287 288 289 291 291 290 289 287 287 289 290 289 287
288 287 288 290 293 294 294 294 293 292 293 293 291 289 287 285 283 283 284 284 285 285 283 284 282 282 284 284 284 286 289 288 290 291 290 291 290 289 288 287 287 286 284
291 291 291 291 292 292 291 291 290 290 292 291 288 289 287 285 284 284 285 286 283 281 282 283 284 284 284 286 286 287 287 287 288 289 289 289 289 292 292 289 287 286 283
290 291 291 291 292 292 290 289 289 290 290 290 290 288 285 285 285 284 283 285 285 284 282 283 285 286 286 286 287 286 287 288 288 289 290 289 289 289 289 289 288 287 285
289 291 290 289 289 290 289 288 288 289 289 290 289 289 285 285 286 285 282 283 285 283 283 283 285 287 288 287 286 287 288 288 288 289 290 290 288 288 288 287 287 287 286
290 291 290 288 288 287 287 287 289 290 289 288 289 291 288 285 285 285 284 284 285 283 283 282 286 288 288 289 288 289 289 289 289 289 288 287 287 286 287 287 287 287 288
287 288 287 286 286 287 285 287 289 290 290 291 291 292 290 286 287 286 283 284 285 284 285 285 286 288 288 288 289 289 289 290 289 288 287 287 288 289 290 289 288 287 287
283 284 283 285 286 286 286 288 289 290 291 291 292 293 292 289 288 286 284 284 285 286 287 287 288 288 288 287 288 288 288 289 290 290 289 289 288 289 290 290 289 288 287
283 281 282 284 285 286 286 286 286 288 289 291 293 293 292 289 286 285 284 284 285 285 286 288 289 287 286 286 288 289 289 289 289 288 288 288 288 289 290 290 289 288 287
282 282 284 284 285 285 287 287 286 286 288 290 291 291 292 288 284 284 283 283 284 285 286 288 288 287 287 287 288 289 289 289 288 287 287 287 288 289 290 291 290 288 288
280 281 283 283 285 286 287 287 288 287 288 289 289 289 290 288 285 284 283 283 283 283 285 286 286 287 288 288 288 289 289 289 288 286 286 287 289 290 291 291 290 288 287
281 280 280 282 286 287 288 288 288 286 286 287 287 288 288 288 285 284 284 284 283 284 284 285 286 287 287 288 289 289 287 288 289 287 287 288 288 289 291 291 290 290 289
281 280 280 282 284 286 287 287 287 286 286 286 286 286 286 287 287 286 285 284 284 284 283 284 284 285 287 287 287 288 288 288 289 288 287 287 288 289 290 291 292 290 289
279 280 280 281 283 285 287 286 285 285 286 286 286 286 286 286 287 287 286 286 284 283 283 283 284 284 285 286 286 286 286 287 287 288 287 287 287 288 289 290 291 291 291
278 279 279 280 282 284 285 285 285 285 285 286 286 285 286 286 286 286 287 286 284 283 283 283 284 285 286 286 285 285 285 285 286 287 287 287 287 288 289 290 291 292 293
277 278 278 278 280 282 283 284 284 284 284 283 283 283 285 287 288 287 287 285 283 283 284 283 284 285 286 286 285 285 285 285 286 286 287 287 288 289 289 290 290 292 293
277 277 278 278 279 281 282 283 283 282 282 282 281 282 284 287 289 288 286 284 282 282 284 284 284 286 286 286 286 285 285 285 286 285 286 287 288 290 291 291 291 292 293
278 278 278 278 279 280 282 283 282 281 281 281 281 280 283 286 287 287 286 284 283 283 284 283 285 287 287 286 285 285 285 285 285 285 286 287 288 290 291 292 292 293 293
280 280 280 279 279 280 281 283 282 279 278 279 280 279 283 286 286 285 284 286 285 284 285 284 286 289 288 287 286 285 286 285 283 284 286 287 288 289 291 291 291 292 293
280 280 281 280 279 279 281 281 281 279 278 279 281 281 282 286 286 285 283 284 284 284 286 287 288 288 288 287 286 285 286 285 284 284 286 287 287 289 290 290 291 292 293
278 278 280 280 279 281 281 281 281 280 279 279 281 282 281 284 286 283 282 283 285 284 285 286 286 287 287 286 286 285 285 285 285 284 286 287 288 289 290 290 290 292 293